Data supplied by UK-AIR on 5/4/2008
All Data GMT hour ending 
Status: R =Ratified P=Provisional,P*=As supplied
,,Glasgow City Chambers,,,,,,,,,,,,,,,,,,,,,,,
Date,time,"Carbon monoxide",status,unit,"Nitric oxide",status,unit,"Nitrogen dioxide",status,unit,"Nitrogen oxides as nitrogen dioxide",status,unit
 
01-01-1992,01:00,,,,,,,,,,,,
01-01-1992,02:00,0.7,R,mgm-3,3,R,ugm-3,8,R,ugm-3,11,R,ugm-3
01-01-1992,03:00,0.7,R,mgm-3,1,R,ugm-3,6,R,ugm-3,8,R,ugm-3
01-01-1992,04:00,0.7,R,mgm-3,3,R,ugm-3,6,R,ugm-3,10,R,ugm-3
01-01-1992,05:00,0.7,R,mgm-3,3,R,ugm-3,6,R,ugm-3,10,R,ugm-3
01-01-1992,06:00,0.7,R,mgm-3,0,R,ugm-3,11,R,ugm-3,11,R,ugm-3
01-01-1992,07:00,0.7,R,mgm-3,0,R,ugm-3,10,R,ugm-3,10,R,ugm-3
01-01-1992,08:00,0.8,R,mgm-3,0,R,ugm-3,11,R,ugm-3,11,R,ugm-3
01-01-1992,09:00,0.6,R,mgm-3,0,R,ugm-3,13,R,ugm-3,13,R,ugm-3
01-01-1992,10:00,0.7,R,mgm-3,0,R,ugm-3,15,R,ugm-3,15,R,ugm-3
01-01-1992,11:00,0.7,R,mgm-3,0,R,ugm-3,13,R,ugm-3,13,R,ugm-3
01-01-1992,12:00,0.9,R,mgm-3,3,R,ugm-3,32,R,ugm-3,36,R,ugm-3
01-01-1992,13:00,0.9,R,mgm-3,4,R,ugm-3,34,R,ugm-3,40,R,ugm-3
01-01-1992,14:00,0.9,R,mgm-3,8,R,ugm-3,44,R,ugm-3,55,R,ugm-3
01-01-1992,15:00,0.7,R,mgm-3,1,R,ugm-3,19,R,ugm-3,21,R,ugm-3
01-01-1992,16:00,0.7,R,mgm-3,1,R,ugm-3,15,R,ugm-3,17,R,ugm-3
01-01-1992,17:00,0.7,R,mgm-3,1,R,ugm-3,15,R,ugm-3,17,R,ugm-3
01-01-1992,18:00,0.6,R,mgm-3,0,R,ugm-3,10,R,ugm-3,10,R,ugm-3
01-01-1992,19:00,0.6,R,mgm-3,0,R,ugm-3,8,R,ugm-3,8,R,ugm-3
01-01-1992,20:00,0.6,R,mgm-3,0,R,ugm-3,8,R,ugm-3,8,R,ugm-3
01-01-1992,21:00,0.6,R,mgm-3,0,R,ugm-3,8,R,ugm-3,8,R,ugm-3
01-01-1992,22:00,0.6,R,mgm-3,0,R,ugm-3,8,R,ugm-3,8,R,ugm-3
01-01-1992,23:00,0.6,R,mgm-3,0,R,ugm-3,8,R,ugm-3,8,R,ugm-3
01-01-1992,24:00,0.6,R,mgm-3,0,R,ugm-3,8,R,ugm-3,8,R,ugm-3
02-01-1992,01:00,0.6,R,mgm-3,3,R,ugm-3,10,R,ugm-3,13,R,ugm-3
02-01-1992,02:00,0.7,R,mgm-3,4,R,ugm-3,10,R,ugm-3,15,R,ugm-3
02-01-1992,03:00,0.7,R,mgm-3,4,R,ugm-3,10,R,ugm-3,15,R,ugm-3
02-01-1992,04:00,0.7,R,mgm-3,3,R,ugm-3,8,R,ugm-3,11,R,ugm-3
02-01-1992,05:00,0.7,R,mgm-3,4,R,ugm-3,6,R,ugm-3,11,R,ugm-3
02-01-1992,06:00,0.7,R,mgm-3,0,R,ugm-3,8,R,ugm-3,8,R,ugm-3
02-01-1992,07:00,0.7,R,mgm-3,1,R,ugm-3,8,R,ugm-3,10,R,ugm-3
02-01-1992,08:00,0.7,R,mgm-3,3,R,ugm-3,8,R,ugm-3,11,R,ugm-3
02-01-1992,09:00,0.7,R,mgm-3,3,R,ugm-3,8,R,ugm-3,11,R,ugm-3
02-01-1992,10:00,0.7,R,mgm-3,3,R,ugm-3,11,R,ugm-3,15,R,ugm-3
02-01-1992,11:00,0.7,R,mgm-3,4,R,ugm-3,15,R,ugm-3,21,R,ugm-3
02-01-1992,12:00,0.8,R,mgm-3,5,R,ugm-3,19,R,ugm-3,27,R,ugm-3
02-01-1992,13:00,0.8,R,mgm-3,5,R,ugm-3,21,R,ugm-3,29,R,ugm-3
02-01-1992,14:00,0.9,R,mgm-3,8,R,ugm-3,21,R,ugm-3,32,R,ugm-3
02-01-1992,15:00,1.0,R,mgm-3,10,R,ugm-3,29,R,ugm-3,44,R,ugm-3
02-01-1992,16:00,1.0,R,mgm-3,10,R,ugm-3,29,R,ugm-3,44,R,ugm-3
02-01-1992,17:00,1.0,R,mgm-3,8,R,ugm-3,27,R,ugm-3,38,R,ugm-3
02-01-1992,18:00,1.0,R,mgm-3,5,R,ugm-3,21,R,ugm-3,29,R,ugm-3
02-01-1992,19:00,0.8,R,mgm-3,4,R,ugm-3,17,R,ugm-3,23,R,ugm-3
02-01-1992,20:00,0.8,R,mgm-3,4,R,ugm-3,15,R,ugm-3,21,R,ugm-3
02-01-1992,21:00,0.8,R,mgm-3,4,R,ugm-3,15,R,ugm-3,21,R,ugm-3
02-01-1992,22:00,0.9,R,mgm-3,4,R,ugm-3,15,R,ugm-3,21,R,ugm-3
02-01-1992,23:00,0.9,R,mgm-3,3,R,ugm-3,13,R,ugm-3,17,R,ugm-3
02-01-1992,24:00,0.9,R,mgm-3,3,R,ugm-3,11,R,ugm-3,15,R,ugm-3
03-01-1992,01:00,0.8,R,mgm-3,3,R,ugm-3,8,R,ugm-3,11,R,ugm-3
03-01-1992,02:00,0.6,R,mgm-3,4,R,ugm-3,,,,,,
03-01-1992,03:00,0.6,R,mgm-3,3,R,ugm-3,8,R,ugm-3,11,R,ugm-3
03-01-1992,04:00,0.7,R,mgm-3,9,R,ugm-3,13,R,ugm-3,27,R,ugm-3
03-01-1992,05:00,0.7,R,mgm-3,8,R,ugm-3,15,R,ugm-3,27,R,ugm-3
03-01-1992,06:00,0.7,R,mgm-3,4,R,ugm-3,19,R,ugm-3,25,R,ugm-3
03-01-1992,07:00,0.8,R,mgm-3,5,R,ugm-3,27,R,ugm-3,34,R,ugm-3
03-01-1992,08:00,1.0,R,mgm-3,19,R,ugm-3,48,R,ugm-3,76,R,ugm-3
03-01-1992,09:00,1.5,R,mgm-3,51,R,ugm-3,69,R,ugm-3,147,R,ugm-3
03-01-1992,10:00,1.4,R,mgm-3,41,R,ugm-3,65,R,ugm-3,128,R,ugm-3
03-01-1992,11:00,1.2,R,mgm-3,35,R,ugm-3,57,R,ugm-3,111,R,ugm-3
03-01-1992,12:00,1.5,R,mgm-3,46,R,ugm-3,59,R,ugm-3,130,R,ugm-3
03-01-1992,13:00,1.4,R,mgm-3,41,R,ugm-3,57,R,ugm-3,120,R,ugm-3
03-01-1992,14:00,1.6,R,mgm-3,46,R,ugm-3,59,R,ugm-3,130,R,ugm-3
03-01-1992,15:00,1.6,R,mgm-3,39,R,ugm-3,55,R,ugm-3,115,R,ugm-3
03-01-1992,16:00,1.5,R,mgm-3,31,R,ugm-3,57,R,ugm-3,105,R,ugm-3
03-01-1992,17:00,1.6,R,mgm-3,40,R,ugm-3,59,R,ugm-3,120,R,ugm-3
03-01-1992,18:00,1.3,R,mgm-3,33,R,ugm-3,53,R,ugm-3,103,R,ugm-3
03-01-1992,19:00,1.0,R,mgm-3,21,R,ugm-3,44,R,ugm-3,76,R,ugm-3
03-01-1992,20:00,0.9,R,mgm-3,14,R,ugm-3,38,R,ugm-3,59,R,ugm-3
03-01-1992,21:00,0.9,R,mgm-3,14,R,ugm-3,34,R,ugm-3,55,R,ugm-3
03-01-1992,22:00,0.8,R,mgm-3,13,R,ugm-3,36,R,ugm-3,55,R,ugm-3
03-01-1992,23:00,0.9,R,mgm-3,19,R,ugm-3,40,R,ugm-3,69,R,ugm-3
03-01-1992,24:00,0.9,R,mgm-3,16,R,ugm-3,38,R,ugm-3,63,R,ugm-3
04-01-1992,01:00,0.9,R,mgm-3,15,R,ugm-3,36,R,ugm-3,59,R,ugm-3
04-01-1992,02:00,0.8,R,mgm-3,18,R,ugm-3,29,R,ugm-3,55,R,ugm-3
04-01-1992,03:00,0.9,R,mgm-3,23,R,ugm-3,32,R,ugm-3,67,R,ugm-3
04-01-1992,04:00,0.9,R,mgm-3,15,R,ugm-3,29,R,ugm-3,52,R,ugm-3
04-01-1992,05:00,0.8,R,mgm-3,6,R,ugm-3,17,R,ugm-3,27,R,ugm-3
04-01-1992,06:00,0.7,R,mgm-3,3,R,ugm-3,11,R,ugm-3,15,R,ugm-3
04-01-1992,07:00,0.7,R,mgm-3,4,R,ugm-3,21,R,ugm-3,27,R,ugm-3
04-01-1992,08:00,0.8,R,mgm-3,9,R,ugm-3,21,R,ugm-3,34,R,ugm-3
04-01-1992,09:00,1.0,R,mgm-3,16,R,ugm-3,38,R,ugm-3,63,R,ugm-3
04-01-1992,10:00,1.0,R,mgm-3,21,R,ugm-3,46,R,ugm-3,78,R,ugm-3
04-01-1992,11:00,1.0,R,mgm-3,23,R,ugm-3,40,R,ugm-3,74,R,ugm-3
04-01-1992,12:00,1.2,R,mgm-3,28,R,ugm-3,40,R,ugm-3,82,R,ugm-3
04-01-1992,13:00,1.3,R,mgm-3,33,R,ugm-3,44,R,ugm-3,94,R,ugm-3
04-01-1992,14:00,1.2,R,mgm-3,29,R,ugm-3,40,R,ugm-3,84,R,ugm-3
04-01-1992,15:00,1.5,R,mgm-3,38,R,ugm-3,52,R,ugm-3,109,R,ugm-3
04-01-1992,16:00,1.6,R,mgm-3,38,R,ugm-3,52,R,ugm-3,109,R,ugm-3
04-01-1992,17:00,1.5,R,mgm-3,38,R,ugm-3,53,R,ugm-3,111,R,ugm-3
04-01-1992,18:00,1.5,R,mgm-3,38,R,ugm-3,53,R,ugm-3,111,R,ugm-3
04-01-1992,19:00,1.5,R,mgm-3,36,R,ugm-3,57,R,ugm-3,113,R,ugm-3
04-01-1992,20:00,1.4,R,mgm-3,38,R,ugm-3,61,R,ugm-3,118,R,ugm-3
04-01-1992,21:00,1.5,R,mgm-3,41,R,ugm-3,63,R,ugm-3,126,R,ugm-3
04-01-1992,22:00,1.6,R,mgm-3,36,R,ugm-3,55,R,ugm-3,111,R,ugm-3
04-01-1992,23:00,1.7,R,mgm-3,50,R,ugm-3,63,R,ugm-3,139,R,ugm-3
04-01-1992,24:00,1.6,R,mgm-3,46,R,ugm-3,61,R,ugm-3,132,R,ugm-3
05-01-1992,01:00,1.7,R,mgm-3,41,R,ugm-3,61,R,ugm-3,124,R,ugm-3
05-01-1992,02:00,1.4,R,mgm-3,26,R,ugm-3,55,R,ugm-3,96,R,ugm-3
05-01-1992,03:00,1.4,R,mgm-3,29,R,ugm-3,57,R,ugm-3,101,R,ugm-3
05-01-1992,04:00,1.4,R,mgm-3,13,R,ugm-3,50,R,ugm-3,69,R,ugm-3
05-01-1992,05:00,2.1,R,mgm-3,103,R,ugm-3,65,R,ugm-3,222,R,ugm-3
05-01-1992,06:00,1.4,R,mgm-3,36,R,ugm-3,50,R,ugm-3,105,R,ugm-3
05-01-1992,07:00,1.3,R,mgm-3,5,R,ugm-3,44,R,ugm-3,52,R,ugm-3
05-01-1992,08:00,1.2,R,mgm-3,11,R,ugm-3,40,R,ugm-3,57,R,ugm-3
05-01-1992,09:00,1.4,R,mgm-3,24,R,ugm-3,42,R,ugm-3,78,R,ugm-3
05-01-1992,10:00,1.2,R,mgm-3,30,R,ugm-3,44,R,ugm-3,90,R,ugm-3
05-01-1992,11:00,1.5,R,mgm-3,64,R,ugm-3,44,R,ugm-3,141,R,ugm-3
05-01-1992,12:00,1.6,R,mgm-3,96,R,ugm-3,42,R,ugm-3,189,R,ugm-3
05-01-1992,13:00,1.7,R,mgm-3,75,R,ugm-3,44,R,ugm-3,159,R,ugm-3
05-01-1992,14:00,2.1,R,mgm-3,95,R,ugm-3,48,R,ugm-3,193,R,ugm-3
05-01-1992,15:00,2.4,R,mgm-3,113,R,ugm-3,52,R,ugm-3,223,R,ugm-3
05-01-1992,16:00,2.2,R,mgm-3,91,R,ugm-3,50,R,ugm-3,189,R,ugm-3
05-01-1992,17:00,2.2,R,mgm-3,76,R,ugm-3,48,R,ugm-3,164,R,ugm-3
05-01-1992,18:00,1.7,R,mgm-3,91,R,ugm-3,53,R,ugm-3,193,R,ugm-3
05-01-1992,19:00,2.0,R,mgm-3,95,R,ugm-3,50,R,ugm-3,195,R,ugm-3
05-01-1992,20:00,1.9,R,mgm-3,86,R,ugm-3,52,R,ugm-3,183,R,ugm-3
05-01-1992,21:00,2.0,R,mgm-3,84,R,ugm-3,50,R,ugm-3,178,R,ugm-3
05-01-1992,22:00,2.0,R,mgm-3,86,R,ugm-3,50,R,ugm-3,181,R,ugm-3
05-01-1992,23:00,1.6,R,mgm-3,73,R,ugm-3,48,R,ugm-3,159,R,ugm-3
05-01-1992,24:00,1.7,R,mgm-3,76,R,ugm-3,46,R,ugm-3,162,R,ugm-3
06-01-1992,01:00,1.7,R,mgm-3,65,R,ugm-3,32,R,ugm-3,132,R,ugm-3
06-01-1992,02:00,1.4,R,mgm-3,139,R,ugm-3,73,R,ugm-3,285,R,ugm-3
06-01-1992,03:00,1.6,R,mgm-3,111,R,ugm-3,59,R,ugm-3,229,R,ugm-3
06-01-1992,04:00,1.4,R,mgm-3,39,R,ugm-3,36,R,ugm-3,96,R,ugm-3
06-01-1992,05:00,1.4,R,mgm-3,34,R,ugm-3,34,R,ugm-3,86,R,ugm-3
06-01-1992,06:00,1.5,R,mgm-3,48,R,ugm-3,34,R,ugm-3,107,R,ugm-3
06-01-1992,07:00,0.7,R,mgm-3,3,R,ugm-3,10,R,ugm-3,13,R,ugm-3
06-01-1992,08:00,0.9,R,mgm-3,14,R,ugm-3,21,R,ugm-3,42,R,ugm-3
06-01-1992,09:00,1.3,R,mgm-3,28,R,ugm-3,31,R,ugm-3,73,R,ugm-3
06-01-1992,10:00,0.9,R,mgm-3,18,R,ugm-3,29,R,ugm-3,55,R,ugm-3
06-01-1992,11:00,0.8,R,mgm-3,15,R,ugm-3,27,R,ugm-3,50,R,ugm-3
06-01-1992,12:00,0.7,R,mgm-3,14,R,ugm-3,27,R,ugm-3,48,R,ugm-3
06-01-1992,13:00,0.9,R,mgm-3,16,R,ugm-3,27,R,ugm-3,52,R,ugm-3
06-01-1992,14:00,0.8,R,mgm-3,11,R,ugm-3,27,R,ugm-3,44,R,ugm-3
06-01-1992,15:00,0.9,R,mgm-3,14,R,ugm-3,27,R,ugm-3,48,R,ugm-3
06-01-1992,16:00,1.0,R,mgm-3,14,R,ugm-3,29,R,ugm-3,50,R,ugm-3
06-01-1992,17:00,1.4,R,mgm-3,18,R,ugm-3,31,R,ugm-3,57,R,ugm-3
06-01-1992,18:00,1.3,R,mgm-3,13,R,ugm-3,27,R,ugm-3,46,R,ugm-3
06-01-1992,19:00,0.9,R,mgm-3,6,R,ugm-3,19,R,ugm-3,29,R,ugm-3
06-01-1992,20:00,0.9,R,mgm-3,4,R,ugm-3,13,R,ugm-3,19,R,ugm-3
06-01-1992,21:00,0.8,R,mgm-3,3,R,ugm-3,6,R,ugm-3,10,R,ugm-3
06-01-1992,22:00,0.8,R,mgm-3,1,R,ugm-3,10,R,ugm-3,11,R,ugm-3
06-01-1992,23:00,0.9,R,mgm-3,3,R,ugm-3,8,R,ugm-3,11,R,ugm-3
06-01-1992,24:00,0.9,R,mgm-3,1,R,ugm-3,10,R,ugm-3,11,R,ugm-3
07-01-1992,01:00,0.8,R,mgm-3,3,R,ugm-3,11,R,ugm-3,15,R,ugm-3
07-01-1992,02:00,0.7,R,mgm-3,1,R,ugm-3,11,R,ugm-3,13,R,ugm-3
07-01-1992,03:00,0.7,R,mgm-3,4,R,ugm-3,11,R,ugm-3,17,R,ugm-3
07-01-1992,04:00,0.7,R,mgm-3,3,R,ugm-3,8,R,ugm-3,11,R,ugm-3
07-01-1992,05:00,0.7,R,mgm-3,3,R,ugm-3,10,R,ugm-3,13,R,ugm-3
07-01-1992,06:00,0.8,R,mgm-3,1,R,ugm-3,10,R,ugm-3,11,R,ugm-3
07-01-1992,07:00,0.8,R,mgm-3,4,R,ugm-3,19,R,ugm-3,25,R,ugm-3
07-01-1992,08:00,1.0,R,mgm-3,9,R,ugm-3,38,R,ugm-3,52,R,ugm-3
07-01-1992,09:00,1.6,R,mgm-3,38,R,ugm-3,52,R,ugm-3,109,R,ugm-3
07-01-1992,10:00,,,,,,,,,,,,
07-01-1992,11:00,1.2,R,mgm-3,19,R,ugm-3,46,R,ugm-3,74,R,ugm-3
07-01-1992,12:00,1.0,R,mgm-3,33,R,ugm-3,48,R,ugm-3,97,R,ugm-3
07-01-1992,13:00,1.2,R,mgm-3,35,R,ugm-3,44,R,ugm-3,97,R,ugm-3
07-01-1992,14:00,1.2,R,mgm-3,25,R,ugm-3,46,R,ugm-3,84,R,ugm-3
07-01-1992,15:00,1.3,R,mgm-3,31,R,ugm-3,46,R,ugm-3,94,R,ugm-3
07-01-1992,16:00,1.3,R,mgm-3,40,R,ugm-3,50,R,ugm-3,111,R,ugm-3
07-01-1992,17:00,1.5,R,mgm-3,25,R,ugm-3,46,R,ugm-3,84,R,ugm-3
07-01-1992,18:00,1.6,R,mgm-3,21,R,ugm-3,46,R,ugm-3,78,R,ugm-3
07-01-1992,19:00,1.2,R,mgm-3,10,R,ugm-3,38,R,ugm-3,53,R,ugm-3
07-01-1992,20:00,1.2,R,mgm-3,9,R,ugm-3,38,R,ugm-3,52,R,ugm-3
07-01-1992,21:00,1.0,R,mgm-3,6,R,ugm-3,29,R,ugm-3,38,R,ugm-3
07-01-1992,22:00,1.0,R,mgm-3,5,R,ugm-3,34,R,ugm-3,42,R,ugm-3
07-01-1992,23:00,1.0,R,mgm-3,8,R,ugm-3,32,R,ugm-3,44,R,ugm-3
07-01-1992,24:00,0.9,R,mgm-3,5,R,ugm-3,23,R,ugm-3,31,R,ugm-3
08-01-1992,01:00,1.0,R,mgm-3,1,R,ugm-3,29,R,ugm-3,31,R,ugm-3
08-01-1992,02:00,0.8,R,mgm-3,30,R,ugm-3,46,R,ugm-3,92,R,ugm-3
08-01-1992,03:00,0.8,R,mgm-3,36,R,ugm-3,40,R,ugm-3,96,R,ugm-3
08-01-1992,04:00,0.7,R,mgm-3,14,R,ugm-3,25,R,ugm-3,46,R,ugm-3
08-01-1992,05:00,0.8,R,mgm-3,6,R,ugm-3,36,R,ugm-3,46,R,ugm-3
08-01-1992,06:00,0.8,R,mgm-3,11,R,ugm-3,25,R,ugm-3,42,R,ugm-3
08-01-1992,07:00,0.9,R,mgm-3,34,R,ugm-3,40,R,ugm-3,92,R,ugm-3
08-01-1992,08:00,1.7,R,mgm-3,104,R,ugm-3,52,R,ugm-3,210,R,ugm-3
08-01-1992,09:00,3.0,R,mgm-3,144,R,ugm-3,59,R,ugm-3,279,R,ugm-3
08-01-1992,10:00,2.7,R,mgm-3,160,R,ugm-3,63,R,ugm-3,308,R,ugm-3
08-01-1992,11:00,2.2,R,mgm-3,131,R,ugm-3,71,R,ugm-3,271,R,ugm-3
08-01-1992,12:00,2.3,R,mgm-3,128,R,ugm-3,69,R,ugm-3,264,R,ugm-3
08-01-1992,13:00,2.1,R,mgm-3,115,R,ugm-3,65,R,ugm-3,241,R,ugm-3
08-01-1992,14:00,2.7,R,mgm-3,133,R,ugm-3,69,R,ugm-3,271,R,ugm-3
08-01-1992,15:00,2.4,R,mgm-3,119,R,ugm-3,63,R,ugm-3,244,R,ugm-3
08-01-1992,16:00,2.2,R,mgm-3,109,R,ugm-3,61,R,ugm-3,227,R,ugm-3
08-01-1992,17:00,3.4,R,mgm-3,118,R,ugm-3,63,R,ugm-3,243,R,ugm-3
08-01-1992,18:00,4.1,R,mgm-3,139,R,ugm-3,61,R,ugm-3,273,R,ugm-3
08-01-1992,19:00,2.4,R,mgm-3,108,R,ugm-3,61,R,ugm-3,225,R,ugm-3
08-01-1992,20:00,2.0,R,mgm-3,83,R,ugm-3,57,R,ugm-3,183,R,ugm-3
08-01-1992,21:00,1.6,R,mgm-3,48,R,ugm-3,50,R,ugm-3,122,R,ugm-3
08-01-1992,22:00,1.9,R,mgm-3,60,R,ugm-3,48,R,ugm-3,139,R,ugm-3
08-01-1992,23:00,1.5,R,mgm-3,55,R,ugm-3,50,R,ugm-3,134,R,ugm-3
08-01-1992,24:00,1.2,R,mgm-3,50,R,ugm-3,46,R,ugm-3,122,R,ugm-3
09-01-1992,01:00,0.9,R,mgm-3,21,R,ugm-3,25,R,ugm-3,57,R,ugm-3
09-01-1992,02:00,0.6,R,mgm-3,5,R,ugm-3,15,R,ugm-3,23,R,ugm-3
09-01-1992,03:00,0.7,R,mgm-3,20,R,ugm-3,31,R,ugm-3,61,R,ugm-3
09-01-1992,04:00,0.6,R,mgm-3,10,R,ugm-3,11,R,ugm-3,27,R,ugm-3
09-01-1992,05:00,0.6,R,mgm-3,14,R,ugm-3,29,R,ugm-3,50,R,ugm-3
09-01-1992,06:00,0.7,R,mgm-3,8,R,ugm-3,31,R,ugm-3,42,R,ugm-3
09-01-1992,07:00,0.9,R,mgm-3,30,R,ugm-3,50,R,ugm-3,96,R,ugm-3
09-01-1992,08:00,2.3,R,mgm-3,138,R,ugm-3,57,R,ugm-3,267,R,ugm-3
09-01-1992,09:00,4.9,R,mgm-3,274,R,ugm-3,55,R,ugm-3,474,R,ugm-3
09-01-1992,10:00,3.7,R,mgm-3,275,R,ugm-3,63,R,ugm-3,483,R,ugm-3
09-01-1992,11:00,2.4,R,mgm-3,178,R,ugm-3,63,R,ugm-3,334,R,ugm-3
09-01-1992,12:00,1.7,R,mgm-3,89,R,ugm-3,53,R,ugm-3,189,R,ugm-3
09-01-1992,13:00,2.1,R,mgm-3,96,R,ugm-3,52,R,ugm-3,199,R,ugm-3
09-01-1992,14:00,2.3,R,mgm-3,104,R,ugm-3,50,R,ugm-3,208,R,ugm-3
09-01-1992,15:00,2.1,R,mgm-3,120,R,ugm-3,52,R,ugm-3,235,R,ugm-3
09-01-1992,16:00,3.7,R,mgm-3,259,R,ugm-3,57,R,ugm-3,453,R,ugm-3
09-01-1992,17:00,4.4,R,mgm-3,215,R,ugm-3,55,R,ugm-3,384,R,ugm-3
09-01-1992,18:00,7.4,R,mgm-3,326,R,ugm-3,52,R,ugm-3,550,R,ugm-3
09-01-1992,19:00,5.3,R,mgm-3,310,R,ugm-3,55,R,ugm-3,529,R,ugm-3
09-01-1992,20:00,6.5,R,mgm-3,451,R,ugm-3,61,R,ugm-3,751,R,ugm-3
09-01-1992,21:00,7.0,R,mgm-3,579,R,ugm-3,63,R,ugm-3,947,R,ugm-3
09-01-1992,22:00,7.0,R,mgm-3,589,R,ugm-3,67,R,ugm-3,966,R,ugm-3
09-01-1992,23:00,5.8,R,mgm-3,499,R,ugm-3,61,R,ugm-3,823,R,ugm-3
09-01-1992,24:00,6.0,R,mgm-3,489,R,ugm-3,55,R,ugm-3,802,R,ugm-3
10-01-1992,01:00,6.1,R,mgm-3,623,R,ugm-3,80,R,ugm-3,1031,R,ugm-3
10-01-1992,02:00,4.8,R,mgm-3,506,R,ugm-3,78,R,ugm-3,852,R,ugm-3
10-01-1992,03:00,3.2,R,mgm-3,313,R,ugm-3,53,R,ugm-3,531,R,ugm-3
10-01-1992,04:00,2.4,R,mgm-3,211,R,ugm-3,46,R,ugm-3,369,R,ugm-3
10-01-1992,05:00,2.1,R,mgm-3,158,R,ugm-3,48,R,ugm-3,288,R,ugm-3
10-01-1992,06:00,1.9,R,mgm-3,149,R,ugm-3,46,R,ugm-3,273,R,ugm-3
10-01-1992,07:00,1.9,R,mgm-3,174,R,ugm-3,44,R,ugm-3,309,R,ugm-3
10-01-1992,08:00,2.8,R,mgm-3,300,R,ugm-3,46,R,ugm-3,504,R,ugm-3
10-01-1992,09:00,7.1,R,mgm-3,559,R,ugm-3,53,R,ugm-3,907,R,ugm-3
10-01-1992,10:00,7.9,R,mgm-3,619,R,ugm-3,71,R,ugm-3,1016,R,ugm-3
10-01-1992,11:00,6.5,R,mgm-3,559,R,ugm-3,92,R,ugm-3,945,R,ugm-3
10-01-1992,12:00,4.2,R,mgm-3,419,R,ugm-3,86,R,ugm-3,726,R,ugm-3
10-01-1992,13:00,3.4,R,mgm-3,293,R,ugm-3,78,R,ugm-3,525,R,ugm-3
10-01-1992,14:00,2.6,R,mgm-3,213,R,ugm-3,67,R,ugm-3,392,R,ugm-3
10-01-1992,15:00,1.4,R,mgm-3,86,R,ugm-3,55,R,ugm-3,187,R,ugm-3
10-01-1992,16:00,1.4,R,mgm-3,68,R,ugm-3,59,R,ugm-3,162,R,ugm-3
10-01-1992,17:00,1.6,R,mgm-3,60,R,ugm-3,57,R,ugm-3,149,R,ugm-3
10-01-1992,18:00,1.7,R,mgm-3,55,R,ugm-3,61,R,ugm-3,145,R,ugm-3
10-01-1992,19:00,1.4,R,mgm-3,51,R,ugm-3,61,R,ugm-3,139,R,ugm-3
10-01-1992,20:00,1.4,R,mgm-3,60,R,ugm-3,59,R,ugm-3,151,R,ugm-3
10-01-1992,21:00,1.3,R,mgm-3,51,R,ugm-3,59,R,ugm-3,138,R,ugm-3
10-01-1992,22:00,1.3,R,mgm-3,34,R,ugm-3,53,R,ugm-3,105,R,ugm-3
10-01-1992,23:00,1.0,R,mgm-3,30,R,ugm-3,50,R,ugm-3,96,R,ugm-3
10-01-1992,24:00,0.8,R,mgm-3,16,R,ugm-3,38,R,ugm-3,63,R,ugm-3
11-01-1992,01:00,0.8,R,mgm-3,14,R,ugm-3,38,R,ugm-3,59,R,ugm-3
11-01-1992,02:00,0.9,R,mgm-3,13,R,ugm-3,32,R,ugm-3,52,R,ugm-3
11-01-1992,03:00,0.9,R,mgm-3,20,R,ugm-3,32,R,ugm-3,63,R,ugm-3
11-01-1992,04:00,1.0,R,mgm-3,23,R,ugm-3,32,R,ugm-3,67,R,ugm-3
11-01-1992,05:00,0.9,R,mgm-3,6,R,ugm-3,25,R,ugm-3,34,R,ugm-3
11-01-1992,06:00,0.9,R,mgm-3,1,R,ugm-3,13,R,ugm-3,15,R,ugm-3
11-01-1992,07:00,0.9,R,mgm-3,3,R,ugm-3,19,R,ugm-3,23,R,ugm-3
11-01-1992,08:00,0.9,R,mgm-3,11,R,ugm-3,36,R,ugm-3,53,R,ugm-3
11-01-1992,09:00,1.4,R,mgm-3,41,R,ugm-3,57,R,ugm-3,120,R,ugm-3
11-01-1992,10:00,1.4,R,mgm-3,48,R,ugm-3,57,R,ugm-3,130,R,ugm-3
11-01-1992,11:00,1.3,R,mgm-3,40,R,ugm-3,52,R,ugm-3,113,R,ugm-3
11-01-1992,12:00,1.5,R,mgm-3,53,R,ugm-3,61,R,ugm-3,141,R,ugm-3
11-01-1992,13:00,1.7,R,mgm-3,53,R,ugm-3,63,R,ugm-3,143,R,ugm-3
11-01-1992,14:00,1.9,R,mgm-3,60,R,ugm-3,65,R,ugm-3,157,R,ugm-3
11-01-1992,15:00,2.1,R,mgm-3,70,R,ugm-3,65,R,ugm-3,172,R,ugm-3
11-01-1992,16:00,2.3,R,mgm-3,80,R,ugm-3,69,R,ugm-3,191,R,ugm-3
11-01-1992,17:00,2.4,R,mgm-3,99,R,ugm-3,73,R,ugm-3,223,R,ugm-3
11-01-1992,18:00,3.4,R,mgm-3,141,R,ugm-3,74,R,ugm-3,290,R,ugm-3
11-01-1992,19:00,3.6,R,mgm-3,186,R,ugm-3,67,R,ugm-3,351,R,ugm-3
11-01-1992,20:00,2.4,R,mgm-3,131,R,ugm-3,67,R,ugm-3,267,R,ugm-3
11-01-1992,21:00,2.2,R,mgm-3,94,R,ugm-3,71,R,ugm-3,214,R,ugm-3
11-01-1992,22:00,2.9,R,mgm-3,143,R,ugm-3,67,R,ugm-3,285,R,ugm-3
11-01-1992,23:00,4.1,R,mgm-3,280,R,ugm-3,57,R,ugm-3,485,R,ugm-3
11-01-1992,24:00,5.2,R,mgm-3,366,R,ugm-3,57,R,ugm-3,617,R,ugm-3
12-01-1992,01:00,7.1,R,mgm-3,330,R,ugm-3,53,R,ugm-3,558,R,ugm-3
12-01-1992,02:00,3.5,R,mgm-3,285,R,ugm-3,53,R,ugm-3,489,R,ugm-3
12-01-1992,03:00,2.8,R,mgm-3,194,R,ugm-3,42,R,ugm-3,338,R,ugm-3
12-01-1992,04:00,2.2,R,mgm-3,136,R,ugm-3,42,R,ugm-3,250,R,ugm-3
12-01-1992,05:00,1.6,R,mgm-3,113,R,ugm-3,44,R,ugm-3,216,R,ugm-3
12-01-1992,06:00,1.2,R,mgm-3,35,R,ugm-3,32,R,ugm-3,86,R,ugm-3
12-01-1992,07:00,1.0,R,mgm-3,23,R,ugm-3,32,R,ugm-3,67,R,ugm-3
12-01-1992,08:00,1.2,R,mgm-3,56,R,ugm-3,29,R,ugm-3,115,R,ugm-3
12-01-1992,09:00,1.5,R,mgm-3,83,R,ugm-3,31,R,ugm-3,157,R,ugm-3
12-01-1992,10:00,1.7,R,mgm-3,130,R,ugm-3,31,R,ugm-3,229,R,ugm-3
12-01-1992,11:00,2.0,R,mgm-3,139,R,ugm-3,34,R,ugm-3,246,R,ugm-3
12-01-1992,12:00,2.0,R,mgm-3,134,R,ugm-3,38,R,ugm-3,243,R,ugm-3
12-01-1992,13:00,2.8,R,mgm-3,179,R,ugm-3,40,R,ugm-3,313,R,ugm-3
12-01-1992,14:00,3.7,R,mgm-3,230,R,ugm-3,53,R,ugm-3,405,R,ugm-3
12-01-1992,15:00,4.9,R,mgm-3,335,R,ugm-3,65,R,ugm-3,577,R,ugm-3
12-01-1992,16:00,6.3,R,mgm-3,509,R,ugm-3,82,R,ugm-3,860,R,ugm-3
12-01-1992,17:00,7.1,R,mgm-3,618,R,ugm-3,82,R,ugm-3,1026,R,ugm-3
12-01-1992,18:00,9.7,R,mgm-3,789,R,ugm-3,82,R,ugm-3,1287,R,ugm-3
12-01-1992,19:00,10.2,R,mgm-3,828,R,ugm-3,90,R,ugm-3,1354,R,ugm-3
12-01-1992,20:00,8.6,R,mgm-3,663,R,ugm-3,90,R,ugm-3,1102,R,ugm-3
12-01-1992,21:00,9.3,R,mgm-3,718,R,ugm-3,92,R,ugm-3,1188,R,ugm-3
12-01-1992,22:00,10.9,R,mgm-3,980,R,ugm-3,117,R,ugm-3,1614,R,ugm-3
12-01-1992,23:00,11.3,R,mgm-3,996,R,ugm-3,143,R,ugm-3,1666,R,ugm-3
12-01-1992,24:00,11.1,R,mgm-3,978,R,ugm-3,143,R,ugm-3,1637,R,ugm-3
13-01-1992,01:00,9.7,R,mgm-3,766,R,ugm-3,136,R,ugm-3,1306,R,ugm-3
13-01-1992,02:00,2.3,R,mgm-3,168,R,ugm-3,59,R,ugm-3,315,R,ugm-3
13-01-1992,03:00,1.0,R,mgm-3,65,R,ugm-3,52,R,ugm-3,151,R,ugm-3
13-01-1992,04:00,1.3,R,mgm-3,81,R,ugm-3,46,R,ugm-3,170,R,ugm-3
13-01-1992,05:00,2.3,R,mgm-3,166,R,ugm-3,59,R,ugm-3,313,R,ugm-3
13-01-1992,06:00,2.1,R,mgm-3,148,R,ugm-3,53,R,ugm-3,279,R,ugm-3
13-01-1992,07:00,1.7,R,mgm-3,151,R,ugm-3,52,R,ugm-3,283,R,ugm-3
13-01-1992,08:00,2.7,R,mgm-3,251,R,ugm-3,52,R,ugm-3,435,R,ugm-3
13-01-1992,09:00,5.0,R,mgm-3,354,R,ugm-3,53,R,ugm-3,594,R,ugm-3
13-01-1992,10:00,2.6,R,mgm-3,219,R,ugm-3,59,R,ugm-3,393,R,ugm-3
13-01-1992,11:00,1.3,R,mgm-3,121,R,ugm-3,63,R,ugm-3,248,R,ugm-3
13-01-1992,12:00,1.3,R,mgm-3,108,R,ugm-3,65,R,ugm-3,229,R,ugm-3
13-01-1992,13:00,1.4,R,mgm-3,109,R,ugm-3,69,R,ugm-3,235,R,ugm-3
13-01-1992,14:00,1.2,R,mgm-3,74,R,ugm-3,61,R,ugm-3,174,R,ugm-3
13-01-1992,15:00,1.2,R,mgm-3,60,R,ugm-3,65,R,ugm-3,157,R,ugm-3
13-01-1992,16:00,1.3,R,mgm-3,73,R,ugm-3,71,R,ugm-3,181,R,ugm-3
13-01-1992,17:00,1.7,R,mgm-3,83,R,ugm-3,71,R,ugm-3,197,R,ugm-3
13-01-1992,18:00,2.3,R,mgm-3,101,R,ugm-3,67,R,ugm-3,222,R,ugm-3
13-01-1992,19:00,1.0,R,mgm-3,58,R,ugm-3,69,R,ugm-3,157,R,ugm-3
13-01-1992,20:00,0.9,R,mgm-3,45,R,ugm-3,65,R,ugm-3,134,R,ugm-3
13-01-1992,21:00,0.8,R,mgm-3,39,R,ugm-3,63,R,ugm-3,122,R,ugm-3
13-01-1992,22:00,0.7,R,mgm-3,23,R,ugm-3,57,R,ugm-3,92,R,ugm-3
13-01-1992,23:00,0.6,R,mgm-3,18,R,ugm-3,52,R,ugm-3,78,R,ugm-3
13-01-1992,24:00,0.5,R,mgm-3,14,R,ugm-3,52,R,ugm-3,73,R,ugm-3
14-01-1992,01:00,0.5,R,mgm-3,8,R,ugm-3,50,R,ugm-3,61,R,ugm-3
14-01-1992,02:00,0.9,R,mgm-3,16,R,ugm-3,38,R,ugm-3,63,R,ugm-3
14-01-1992,03:00,0.8,R,mgm-3,25,R,ugm-3,40,R,ugm-3,78,R,ugm-3
14-01-1992,04:00,0.7,R,mgm-3,5,R,ugm-3,32,R,ugm-3,40,R,ugm-3
14-01-1992,05:00,0.8,R,mgm-3,5,R,ugm-3,36,R,ugm-3,44,R,ugm-3
14-01-1992,06:00,0.9,R,mgm-3,5,R,ugm-3,32,R,ugm-3,40,R,ugm-3
14-01-1992,07:00,1.0,R,mgm-3,38,R,ugm-3,59,R,ugm-3,117,R,ugm-3
14-01-1992,08:00,2.3,R,mgm-3,181,R,ugm-3,67,R,ugm-3,344,R,ugm-3
14-01-1992,09:00,4.4,R,mgm-3,319,R,ugm-3,67,R,ugm-3,554,R,ugm-3
14-01-1992,10:00,3.9,R,mgm-3,309,R,ugm-3,76,R,ugm-3,548,R,ugm-3
14-01-1992,11:00,2.3,R,mgm-3,200,R,ugm-3,76,R,ugm-3,382,R,ugm-3
14-01-1992,12:00,1.9,R,mgm-3,136,R,ugm-3,71,R,ugm-3,279,R,ugm-3
14-01-1992,13:00,2.0,R,mgm-3,103,R,ugm-3,69,R,ugm-3,225,R,ugm-3
14-01-1992,14:00,1.7,R,mgm-3,79,R,ugm-3,67,R,ugm-3,187,R,ugm-3
14-01-1992,15:00,2.0,R,mgm-3,109,R,ugm-3,69,R,ugm-3,235,R,ugm-3
14-01-1992,16:00,2.3,R,mgm-3,130,R,ugm-3,74,R,ugm-3,273,R,ugm-3
14-01-1992,17:00,3.1,R,mgm-3,198,R,ugm-3,73,R,ugm-3,374,R,ugm-3
14-01-1992,18:00,5.7,R,mgm-3,315,R,ugm-3,71,R,ugm-3,552,R,ugm-3
14-01-1992,19:00,4.8,R,mgm-3,290,R,ugm-3,65,R,ugm-3,508,R,ugm-3
14-01-1992,20:00,5.9,R,mgm-3,428,R,ugm-3,57,R,ugm-3,711,R,ugm-3
14-01-1992,21:00,5.5,R,mgm-3,451,R,ugm-3,59,R,ugm-3,749,R,ugm-3
14-01-1992,22:00,4.5,R,mgm-3,344,R,ugm-3,55,R,ugm-3,581,R,ugm-3
14-01-1992,23:00,3.1,R,mgm-3,230,R,ugm-3,52,R,ugm-3,403,R,ugm-3
14-01-1992,24:00,2.3,R,mgm-3,204,R,ugm-3,48,R,ugm-3,359,R,ugm-3
15-01-1992,01:00,1.6,R,mgm-3,105,R,ugm-3,48,R,ugm-3,208,R,ugm-3
15-01-1992,02:00,1.6,R,mgm-3,166,R,ugm-3,65,R,ugm-3,319,R,ugm-3
15-01-1992,03:00,1.3,R,mgm-3,79,R,ugm-3,59,R,ugm-3,180,R,ugm-3
15-01-1992,04:00,1.2,R,mgm-3,41,R,ugm-3,46,R,ugm-3,109,R,ugm-3
15-01-1992,05:00,1.4,R,mgm-3,56,R,ugm-3,48,R,ugm-3,134,R,ugm-3
15-01-1992,06:00,1.4,R,mgm-3,53,R,ugm-3,44,R,ugm-3,124,R,ugm-3
15-01-1992,07:00,1.7,R,mgm-3,124,R,ugm-3,42,R,ugm-3,231,R,ugm-3
15-01-1992,08:00,3.0,R,mgm-3,260,R,ugm-3,50,R,ugm-3,447,R,ugm-3
15-01-1992,09:00,5.9,R,mgm-3,416,R,ugm-3,53,R,ugm-3,690,R,ugm-3
15-01-1992,10:00,5.3,R,mgm-3,496,R,ugm-3,73,R,ugm-3,831,R,ugm-3
15-01-1992,11:00,3.7,R,mgm-3,343,R,ugm-3,69,R,ugm-3,592,R,ugm-3
15-01-1992,12:00,3.8,R,mgm-3,344,R,ugm-3,71,R,ugm-3,596,R,ugm-3
15-01-1992,13:00,3.4,R,mgm-3,334,R,ugm-3,67,R,ugm-3,577,R,ugm-3
15-01-1992,14:00,1.7,R,mgm-3,94,R,ugm-3,52,R,ugm-3,195,R,ugm-3
15-01-1992,15:00,1.6,R,mgm-3,74,R,ugm-3,55,R,ugm-3,168,R,ugm-3
15-01-1992,16:00,1.7,R,mgm-3,75,R,ugm-3,59,R,ugm-3,174,R,ugm-3
15-01-1992,17:00,2.2,R,mgm-3,101,R,ugm-3,59,R,ugm-3,214,R,ugm-3
15-01-1992,18:00,3.2,R,mgm-3,135,R,ugm-3,61,R,ugm-3,267,R,ugm-3
15-01-1992,19:00,2.0,R,mgm-3,96,R,ugm-3,53,R,ugm-3,201,R,ugm-3
15-01-1992,20:00,1.5,R,mgm-3,51,R,ugm-3,50,R,ugm-3,128,R,ugm-3
15-01-1992,21:00,1.6,R,mgm-3,63,R,ugm-3,52,R,ugm-3,147,R,ugm-3
15-01-1992,22:00,1.6,R,mgm-3,53,R,ugm-3,48,R,ugm-3,128,R,ugm-3
15-01-1992,23:00,1.3,R,mgm-3,43,R,ugm-3,46,R,ugm-3,111,R,ugm-3
15-01-1992,24:00,1.2,R,mgm-3,26,R,ugm-3,40,R,ugm-3,80,R,ugm-3
16-01-1992,01:00,0.9,R,mgm-3,15,R,ugm-3,36,R,ugm-3,59,R,ugm-3
16-01-1992,02:00,0.7,R,mgm-3,13,R,ugm-3,25,R,ugm-3,44,R,ugm-3
16-01-1992,03:00,0.8,R,mgm-3,28,R,ugm-3,34,R,ugm-3,76,R,ugm-3
16-01-1992,04:00,0.7,R,mgm-3,10,R,ugm-3,23,R,ugm-3,38,R,ugm-3
16-01-1992,05:00,0.8,R,mgm-3,15,R,ugm-3,29,R,ugm-3,52,R,ugm-3
16-01-1992,06:00,0.8,R,mgm-3,6,R,ugm-3,27,R,ugm-3,36,R,ugm-3
16-01-1992,07:00,0.9,R,mgm-3,20,R,ugm-3,50,R,ugm-3,80,R,ugm-3
16-01-1992,08:00,1.9,R,mgm-3,121,R,ugm-3,55,R,ugm-3,241,R,ugm-3
16-01-1992,09:00,4.5,R,mgm-3,325,R,ugm-3,63,R,ugm-3,560,R,ugm-3
16-01-1992,10:00,3.0,R,mgm-3,223,R,ugm-3,67,R,ugm-3,407,R,ugm-3
16-01-1992,11:00,2.7,R,mgm-3,198,R,ugm-3,69,R,ugm-3,371,R,ugm-3
16-01-1992,12:00,2.0,R,mgm-3,144,R,ugm-3,67,R,ugm-3,287,R,ugm-3
16-01-1992,13:00,1.7,R,mgm-3,88,R,ugm-3,61,R,ugm-3,195,R,ugm-3
16-01-1992,14:00,2.0,R,mgm-3,103,R,ugm-3,63,R,ugm-3,220,R,ugm-3
16-01-1992,15:00,2.1,R,mgm-3,134,R,ugm-3,69,R,ugm-3,273,R,ugm-3
16-01-1992,16:00,2.3,R,mgm-3,119,R,ugm-3,71,R,ugm-3,252,R,ugm-3
16-01-1992,17:00,3.0,R,mgm-3,163,R,ugm-3,71,R,ugm-3,319,R,ugm-3
16-01-1992,18:00,4.4,R,mgm-3,240,R,ugm-3,63,R,ugm-3,430,R,ugm-3
16-01-1992,19:00,3.1,R,mgm-3,164,R,ugm-3,61,R,ugm-3,311,R,ugm-3